Kosmos-2448

operational
NORAD ID: 33468 Int'l Des: 2008-067 Owner: KVR/IACG Country: RU Constellation: GLONASS
MEOCIRCULAR

Kosmos-2448について

説明を読み込み中...

リアルタイム位置

3D地球を読み込み中...

次回通過

高度履歴

Altitude vs Time

uPlot chart will show altitude changes over time

軌道要素

1 33468U 08067C 25276.42186520 .00000063 00000-0 00000-0 0 9994
2 33468 64.6604 78.1177 0003009 187.7828 172.2431 2.13116743130569
Epoch: Oct 3, 2025 • Age: 60 hours

現在のステータス

高度 19136.6 km
速度 3.95 km/s
衛星直下点 59.28°N, 136.74°W
打ち上げ日 Dec 25, 2008
運用期間 16.7 years
タイプ other

技術仕様

分類 Payload
質量 1450.00 kg
乾燥質量 1200.00 kg
総質量 1450.00 kg
長さ 4.00 m
直径 1.50 m
スパン 7.80 m
形状 Cyl + Ant + 2 Pan
製造者 RESH
バスタイプ Uragan
フェーズステータス In Orbit
所有者/国 KVR/IACG/RU

大規模コンステレーション

Loading constellations...